Weather observations for the past three days for
York, York Airport
Imperial (Metric)
Date Time (edt) Wind (mph) Vis. (mi.) Weather Sky Cond. Temperature (ºF) Relative Humidity Wind Chill (°F) Heat Index (°F) Pressure Precipitation (in)
Air Dwpt 6 hour altimeter (in) sea level (mb) 1 hr 3 hr 6 hr
Max. Min.
21 18:53 Calm 10.00 Fair CLR 90 60.1 37% 90 30 1015.6
21 17:53 Calm 10.00 Partly Cloudy SCT085 89.1 59 36% 88 30 1015.6
21 16:53 Vrbl 3 10.00 Partly Cloudy SCT075 SCT100 90 60.1 37% 90 30.01 1015.9
21 15:53 Calm 10.00 Fair CLR 87.1 61 42% 87 30.02 1016.3
21 14:53 E 3 10.00 Overcast BKN060 OVC080 88 62.1 42% 88 30.02 1016.4
21 13:53 SW 3 10.00 Partly Cloudy SCT065 88 60.1 90 72 39% 88 30.03 1016.8
21 12:53 Vrbl 5 10.00 A Few Clouds FEW085 88 64 45% 89 30.04 1017.0
21 11:53 Calm 10.00 Fair CLR 84.9 66.9 55% 88 30.05 1017.3
21 10:53 N 7 10.00 Fair CLR 82 68 63% 85 30.05 1017.3
21 09:53 Vrbl 5 10.00 Fair CLR 80.1 68 67% 83 30.06 1017.7
21 08:53 W 3 10.00 Fair CLR 75.9 68 77% 77 30.06 1017.8
21 07:53 Calm 7.00 Fair CLR 72 68 72 64 87% 30.06 1017.8
21 06:53 Calm 5.00 Fog/Mist BKN080 66.9 66 97% 30.06 1017.6
21 05:53 Calm 5.00 Fog/Mist CLR 64.9 63 93% 30.04 1017.1
21 04:53 Calm 7.00 Fair CLR 66 64 93% 30.03 1016.7
21 03:53 Calm 7.00 A Few Clouds FEW085 66 64 93% 30.03 1016.7
21 02:53 Calm 10.00 Partly Cloudy SCT060 69.1 66 90% 30.03 1016.8
21 01:53 SE 3 10.00 Fair CLR 68 64.9 78.1 66.9 90% 30.04 1016.9
21 00:53 Calm 10.00 Fair CLR 69.1 64.9 87% 30.05 1017.3
20 23:53 Calm 10.00 Fair CLR 70 64.9 84% 30.05 1017.5
20 22:53 Calm 10.00 Fair CLR 73 64.9 76% 30.06 1017.9
20 21:53 S 5 10.00 Fair CLR 75 64 69% 77 30.07 1017.9
20 20:53 SW 5 10.00 Fair CLR 75.9 64 67% 78 30.06 1017.8
20 19:53 S 5 10.00 Fair CLR 78.1 64.9 82.9 78.1 64% 80 30.05 1017.3
20 18:53 Vrbl 5 10.00 Fair CLR 80.1 64 58% 82 30.04 1017.1
20 17:53 Vrbl 6 10.00 Partly Cloudy FEW046 SCT095 81 64 57% 83 30.04 1017.2
20 16:53 Calm 10.00 A Few Clouds FEW048 82.9 64 53% 84 30.05 1017.5
20 15:53 Vrbl 6 10.00 Fair CLR 82.9 66 57% 85 30.06 1017.7
20 14:53 Vrbl 6 10.00 Mostly Cloudy BKN075 82 66 58% 84 30.08 1018.4
20 13:53 SE 8 10.00 Fair CLR 82.9 66 84 73 57% 85 30.08 1018.6
20 12:53 Vrbl 3 10.00 A Few Clouds FEW040 82.9 66 57% 85 30.09 1018.7
20 11:53 SW 7 10.00 A Few Clouds FEW095 82 64.9 56% 84 30.1 1018.9
20 10:53 SW 6 10.00 A Few Clouds FEW120 82 64.9 56% 84 30.1 1019.2
20 09:53 SW 7 10.00 Fair CLR 80.1 64.9 60% 82 30.11 1019.2
20 08:53 Vrbl 5 10.00 A Few Clouds FEW120 77 69.1 77% 79 30.11 1019.5
20 07:53 SW 5 10.00 Partly Cloudy SCT090 73 66.9 73.9 69.1 81% 30.12 1019.7 0.01
20 06:53 S 5 10.00 Overcast OVC100 71.1 66 84% 30.11 1019.5 0.01
20 05:53 Vrbl 3 10.00 Light Rain FEW055 OVC080 71.1 64 79% 30.12 1019.6
20 04:53 Vrbl 3 10.00 Light Rain OVC085 71.1 66 84% 30.12 1019.9
20 03:53 Calm 10.00 Overcast FEW055 OVC090 70 64.9 84% 30.12 1019.6
20 02:53 Calm 10.00 Fair CLR 70 62.1 76% 30.11 1019.6
20 01:53 S 5 10.00 Partly Cloudy SCT070 73 62.1 80.1 73 69% 30.12 1019.8
20 00:53 S 6 10.00 Overcast BKN065 OVC080 73.9 61 64% 30.13 1020.1
19 23:53 Vrbl 5 10.00 Fair CLR 75 60.1 60% 77 30.13 1020.0
19 22:53 SE 5 10.00 Fair CLR 75.9 60.1 58% 78 30.13 1020.1
19 21:53 Vrbl 5 10.00 Fair CLR 77 60.1 56% 79 30.13 1020.0
19 20:53 Vrbl 3 10.00 Mostly Cloudy BKN085 79 61 54% 80 30.11 1019.3
19 19:53 Calm 10.00 Fair CLR 81 60.1 87.1 81 49% 82 30.1 1019.0
19 18:53 S 6 10.00 A Few Clouds FEW060 82.9 59 44% 83 30.08 1018.5
19 17:53 SE 10 10.00 Fair CLR 84.9 59 42% 85 30.08 1018.4
19 16:53 NE 5 10.00 Mostly Cloudy SCT060 BKN075 84.9 57.9 40% 84 30.1 1019.0
19 15:53 Calm 10.00 Mostly Cloudy BKN065 82.9 57.9 43% 83 30.11 1019.5
19 14:53 Calm 10.00 A Few Clouds FEW055 84 57 40% 83 30.13 1020.1
19 13:53 Vrbl 3 10.00 Partly Cloudy SCT060 81 57 82.9 69.1 44% 81 30.14 1020.6
19 12:53 Vrbl 5 10.00 Fair CLR 81 57 44% 81 30.15 1020.9
19 11:53 Calm 10.00 Fair CLR 79 57 47% 80 30.16 1021.1
19 10:53 NE 7 10.00 Fair CLR 77 55.9 48% 79 30.17 1021.4
19 09:53 Vrbl 6 10.00 Fair CLR 73.9 55 52% 30.16 1021.2
19 08:53 N 8 10.00 Fair CLR 73 55.9 55% 30.16 1021.3
19 07:53 N 5 10.00 Fair CLR 69.1 57.9 69.1 60.1 68% 30.15 1020.7
19 06:53 Calm 10.00 Fair CLR 64 60.1 87% 30.13 1020.1
19 05:53 NW 3 10.00 Fair CLR 60.1 57.9 93% 30.1 1019.4
19 04:53 Calm 10.00 Fair CLR 61 59 93% 30.08 1018.7
19 03:53 Calm 10.00 Fair CLR 63 60.1 90% 30.08 1018.3
19 02:53 W 3 10.00 Fair CLR 63 61 93% 30.06 1017.8
19 01:53 Calm 10.00 A Few Clouds FEW065 64.9 62.1 82 64.9 90% 30.06 1017.8
19 00:53 Calm 10.00 Fair CLR 66.9 62.1 84% 30.05 1017.4
18 23:53 Calm 10.00 Mostly Cloudy SCT070 BKN090 71.1 64.9 81% 30.04 1017.1
18 22:53 Calm 10.00 Overcast OVC075 72 66 82% 30.03 1016.8
18 21:53 Calm 10.00 Overcast BKN065 OVC090 72 66 82% 30.02 1016.4
18 20:53 SW 3 10.00 A Few Clouds FEW070 72 66 82% 29.99 1015.3
18 19:53 N 3 10.00 Fair CLR 82 60.1 86 80.1 47% 82 29.97 1014.5
Date Time (edt) Wind (mph) Vis. (mi.) Weather Sky Cond. Air Dwpt Max. Min. Relative Humidity Wind Chill (°F) Heat Index (°F) altimeter (in) sea level (mb) 1 hr 3 hr 6 hr
6 hour
Temperature (ºF) Pressure Precipitation (in)